Location: Frizzleburg
(41.0764°N, 80.4548°W)
Time: 21:11:56
(UTC+00:00)

STARLINK-57 - Pass Details

Date: 17 November 2019
Orbit: 529 x 530 km, 53.0° (Epoch: 14 December)

Event Time Altitude Azimuth Distance (km) Brightness Sun altitude
Exits shadow 10:02:17 32° 169° (S) 921 4.8 -24.3°
Drops below altitude 10° 10:07:04 10° 65° (ENE) 1,770 7.0 -23.4°
Enters shadow 11:07:32 -62° 235° (SW) 11,837 10.3 -12.2°
Maximum altitude 11:42:22 35° 331° (NNW) 856 4.2 -5.9°
